Terminal Aerodrome Forecast
Issued by NWS Wilmington, OH

Current Version | Previous Version | Text Only | Print | Product List | Glossary Off
Versions: 1 2 3 4 5 6 7 8 9 10 11 12 13 14 15 16 17 18 19 20 21 22 23 24

473
FTUS41 KILN 030047 AAB
TAFCVG
TAF AMD
KCVG 030047Z 0301/0406 15014G24KT 5SM -SHRA OVC060 WS020/19055KT
      TEMPO 0301/0304 2SM TSRA OVC025CB
     FM030400 18016G26KT 4SM -SHRA BR VCTS OVC035CB WS020/19055KT
      TEMPO 0304/0307 2SM -SHRA OVC025
     FM030900 19016G26KT 5SM BR VCSH OVC015
     FM031200 22012G22KT P6SM BKN025
     FM031400 24014G24KT P6SM SCT035
     FM031900 25016G26KT P6SM BKN035
     FM040400 26012G20KT P6SM BKN025=

USA.gov is the U.S. government's official web portal to all federal, state and local government web resources and services.